Time,TemperatureF,DewpointF,PressureIn,WindDirection,WindDirectionDegrees,WindSpeedMPH,WindSpeedGustMPH,Humidity,HourlyPrecipIn,Conditions,Clouds,dailyrainin,SoftwareType,DateUTC
2013-05-22 00:00:00,78.4,71.4,30.40,North,0,0.0,0.0,79,0.00,CLR,SCT,0.00,WeatherDisplay:10.37,2013-05-22 04:00:00,
2013-05-22 00:01:00,76.6,64.9,30.40,North,0,0.0,0.0,67,0.00,CLR,SCT,0.00,WeatherDisplay:10.37,2013-05-22 04:01:00,
2013-05-22 00:06:00,76.6,64.9,30.40,North,0,0.0,0.0,67,0.00,CLR,SCT,0.00,WeatherDisplay:10.37,2013-05-22 04:06:00,
2013-05-22 00:11:00,76.6,64.9,30.40,North,0,0.0,0.0,67,0.00,CLR,SCT,0.00,WeatherDisplay:10.37,2013-05-22 04:11:00,
2013-05-22 00:15:00,78.4,71.4,30.40,North,0,0.0,0.0,79,0.00,CLR,SCT,0.00,WeatherDisplay:10.37,2013-05-22 04:15:00,
2013-05-22 00:16:00,76.8,65.0,30.40,North,0,0.0,0.0,67,0.00,CLR,SCT,0.00,WeatherDisplay:10.37,2013-05-22 04:16:00,
2013-05-22 00:21:00,76.8,65.0,30.40,North,0,0.0,0.0,67,0.00,CLR,SCT,0.00,WeatherDisplay:10.37,2013-05-22 04:21:00,
2013-05-22 00:26:00,76.8,65.0,30.40,North,0,0.0,0.0,67,0.00,CLR,SCT,0.00,WeatherDisplay:10.37,2013-05-22 04:26:00,
2013-05-22 00:30:00,78.4,71.4,30.40,North,0,0.0,0.0,79,0.00,CLR,SCT,0.00,WeatherDisplay:10.37,2013-05-22 04:30:00,
2013-05-22 00:31:00,77.0,65.2,30.40,North,0,0.0,0.0,67,0.00,CLR,SCT,0.00,WeatherDisplay:10.37,2013-05-22 04:31:00,
2013-05-22 00:36:00,77.2,65.4,30.40,North,0,0.0,0.0,67,0.00,CLR,SCT,0.00,WeatherDisplay:10.37,2013-05-22 04:36:00,
2013-05-22 00:41:00,77.2,65.4,30.40,North,0,0.0,0.0,67,0.00,CLR,SCT,0.00,WeatherDisplay:10.37,2013-05-22 04:41:00,
2013-05-22 00:45:00,82.9,67.1,30.40,North,0,0.0,0.0,59,0.00,CLR,SCT,0.00,WeatherDisplay:10.37,2013-05-22 04:45:00,
2013-05-22 00:46:00,77.4,66.4,30.40,North,0,0.0,0.0,69,0.00,CLR,SCT,0.00,WeatherDisplay:10.37,2013-05-22 04:46:00,
2013-05-22 00:51:00,77.2,65.8,30.40,North,0,0.0,0.0,68,0.00,CLR,SCT,0.00,WeatherDisplay:10.37,2013-05-22 04:51:00,
2013-05-22 00:56:00,77.2,66.2,30.40,North,0,0.0,0.0,69,0.00,CLR,SCT,0.00,WeatherDisplay:10.37,2013-05-22 04:56:00,
2013-05-22 01:00:00,82.9,67.1,30.40,North,0,0.0,0.0,59,0.00,CLR,SCT,0.00,WeatherDisplay:10.37,2013-05-22 05:00:00,
2013-05-22 01:01:00,77.2,66.6,30.40,North,0,0.0,0.0,70,0.00,CLR,SCT,0.00,WeatherDisplay:10.37,2013-05-22 05:01:00,
2013-05-22 01:06:00,77.0,66.9,30.40,North,0,0.0,0.0,71,0.00,CLR,SCT,0.00,WeatherDisplay:10.37,2013-05-22 05:06:00,
2013-05-22 01:11:00,76.8,67.1,30.40,North,0,0.0,0.0,72,0.00,CLR,SCT,0.00,WeatherDisplay:10.37,2013-05-22 05:11:00,
2013-05-22 01:15:00,82.9,67.1,30.40,North,0,0.0,0.0,59,0.00,CLR,SCT,0.00,WeatherDisplay:10.37,2013-05-22 05:15:00,
2013-05-22 01:16:00,76.8,67.1,30.40,North,0,0.0,0.0,72,0.00,CLR,SCT,0.00,WeatherDisplay:10.37,2013-05-22 05:16:00,
2013-05-22 01:21:00,77.0,67.3,30.40,North,0,0.0,0.0,72,0.00,CLR,SCT,0.00,WeatherDisplay:10.37,2013-05-22 05:21:00,
2013-05-22 01:26:00,76.8,67.1,30.40,North,0,0.0,0.0,72,0.00,CLR,SCT,0.00,WeatherDisplay:10.37,2013-05-22 05:26:00,
2013-05-22 01:30:00,82.9,67.1,30.40,North,0,0.0,0.0,59,0.00,CLR,SCT,0.00,WeatherDisplay:10.37,2013-05-22 05:30:00,
2013-05-22 01:31:00,76.8,67.1,30.40,North,0,0.0,0.0,72,0.00,CLR,SCT,0.00,WeatherDisplay:10.37,2013-05-22 05:31:00,
2013-05-22 01:36:00,76.8,67.5,30.40,North,0,0.0,0.0,73,0.00,CLR,SCT,0.00,WeatherDisplay:10.37,2013-05-22 05:36:00,
2013-05-22 01:41:00,76.8,67.1,30.40,North,0,0.0,0.0,72,0.00,CLR,SCT,0.00,WeatherDisplay:10.37,2013-05-22 05:41:00,
2013-05-22 01:45:00,83.7,67.8,30.40,North,0,0.0,0.0,59,0.00,CLR,SCT,0.00,WeatherDisplay:10.37,2013-05-22 05:45:00,
2013-05-22 01:46:00,76.8,67.1,30.40,North,0,0.0,0.0,72,0.00,CLR,SCT,0.00,WeatherDisplay:10.37,2013-05-22 05:46:00,
2013-05-22 01:51:00,76.6,66.9,30.40,North,0,0.0,0.0,72,0.00,CLR,SCT,0.00,WeatherDisplay:10.37,2013-05-22 05:51:00,
2013-05-22 01:56:00,76.6,66.9,30.40,North,0,0.0,0.0,72,0.00,CLR,SCT,0.00,WeatherDisplay:10.37,2013-05-22 05:56:00,
2013-05-22 02:00:00,83.7,67.8,30.40,North,0,0.0,0.0,59,0.00,CLR,SCT,0.00,WeatherDisplay:10.37,2013-05-22 06:00:00,
2013-05-22 02:01:00,76.6,66.9,30.40,North,0,0.0,0.0,72,0.00,CLR,SCT,0.00,WeatherDisplay:10.37,2013-05-22 06:01:00,
2013-05-22 02:06:00,76.6,66.9,30.40,North,0,0.0,0.0,72,0.00,CLR,SCT,0.00,WeatherDisplay:10.37,2013-05-22 06:06:00,
2013-05-22 02:11:00,76.6,66.9,30.40,North,0,0.0,0.0,72,0.00,CLR,SCT,0.00,WeatherDisplay:10.37,2013-05-22 06:11:00,
2013-05-22 02:15:00,83.7,67.8,30.40,North,0,0.0,0.0,59,0.00,CLR,SCT,0.00,WeatherDisplay:10.37,2013-05-22 06:15:00,
2013-05-22 02:16:00,76.5,66.8,30.40,North,0,0.0,0.0,72,0.00,CLR,SCT,0.00,WeatherDisplay:10.37,2013-05-22 06:16:00,
2013-05-22 02:21:00,76.5,67.2,30.40,North,0,0.0,0.0,73,0.00,CLR,SCT,0.00,WeatherDisplay:10.37,2013-05-22 06:21:00,
2013-05-22 02:26:00,76.5,67.2,30.40,North,0,0.0,0.0,73,0.00,CLR,SCT,0.00,WeatherDisplay:10.37,2013-05-22 06:26:00,
2013-05-22 02:30:00,83.7,67.8,30.40,North,0,0.0,0.0,59,0.00,CLR,SCT,0.00,WeatherDisplay:10.37,2013-05-22 06:30:00,
2013-05-22 02:31:00,76.5,67.2,30.40,North,0,0.0,0.0,73,0.00,CLR,SCT,0.00,WeatherDisplay:10.37,2013-05-22 06:31:00,
2013-05-22 02:36:00,76.5,67.2,30.40,North,0,0.0,0.0,73,0.00,CLR,SCT,0.00,WeatherDisplay:10.37,2013-05-22 06:36:00,
2013-05-22 02:41:00,76.5,67.2,30.40,North,0,0.0,0.0,73,0.00,CLR,SCT,0.00,WeatherDisplay:10.37,2013-05-22 06:41:00,
2013-05-22 02:45:00,85.5,64.1,30.40,North,0,0.0,0.0,49,0.00,CLR,SCT,0.00,WeatherDisplay:10.37,2013-05-22 06:45:00,
2013-05-22 02:46:00,76.6,67.3,30.40,North,0,0.0,0.0,73,0.00,CLR,SCT,0.00,WeatherDisplay:10.37,2013-05-22 06:46:00,
2013-05-22 02:51:00,76.6,67.3,30.40,North,0,0.0,0.0,73,0.00,CLR,SCT,0.00,WeatherDisplay:10.37,2013-05-22 06:51:00,
2013-05-22 02:56:00,76.8,67.5,30.40,North,0,0.0,0.0,73,0.00,CLR,SCT,0.00,WeatherDisplay:10.37,2013-05-22 06:56:00,
2013-05-22 03:00:00,85.5,64.1,30.40,North,0,0.0,0.0,49,0.00,CLR,SCT,0.00,WeatherDisplay:10.37,2013-05-22 07:00:00,
2013-05-22 03:01:00,76.8,67.5,30.40,North,0,0.0,0.0,73,0.00,CLR,SCT,0.00,WeatherDisplay:10.37,2013-05-22 07:01:00,
2013-05-22 03:06:00,76.8,67.5,30.40,North,0,0.0,0.0,73,0.00,CLR,SCT,0.00,WeatherDisplay:10.37,2013-05-22 07:06:00,
2013-05-22 03:11:00,76.6,67.3,30.40,North,0,0.0,0.0,73,0.00,CLR,SCT,0.00,WeatherDisplay:10.37,2013-05-22 07:11:00,
2013-05-22 03:15:00,85.5,64.1,30.40,North,0,0.0,0.0,49,0.00,CLR,SCT,0.00,WeatherDisplay:10.37,2013-05-22 07:15:00,
2013-05-22 03:16:00,76.6,66.9,30.40,North,0,0.0,0.0,72,0.00,CLR,SCT,0.00,WeatherDisplay:10.37,2013-05-22 07:16:00,
2013-05-22 03:21:00,76.6,66.9,30.40,North,0,0.0,0.0,72,0.00,CLR,SCT,0.00,WeatherDisplay:10.37,2013-05-22 07:21:00,
2013-05-22 03:26:00,76.6,66.9,30.40,North,0,0.0,0.0,72,0.00,CLR,SCT,0.00,WeatherDisplay:10.37,2013-05-22 07:26:00,
2013-05-22 03:30:00,85.5,64.1,30.40,North,0,0.0,0.0,49,0.00,CLR,SCT,0.00,WeatherDisplay:10.37,2013-05-22 07:30:00,
2013-05-22 03:31:00,76.5,66.8,30.40,North,0,0.0,0.0,72,0.00,CLR,SCT,0.00,WeatherDisplay:10.37,2013-05-22 07:31:00,
2013-05-22 03:36:00,76.5,66.8,30.40,North,0,0.0,0.0,72,0.00,CLR,SCT,0.00,WeatherDisplay:10.37,2013-05-22 07:36:00,
2013-05-22 03:42:00,76.5,66.8,30.40,North,0,0.0,0.0,72,0.00,CLR,SCT,0.00,WeatherDisplay:10.37,2013-05-22 07:42:00,
2013-05-22 03:45:00,80.2,64.1,30.40,North,0,0.0,0.0,58,0.00,CLR,SCT,0.00,WeatherDisplay:10.37,2013-05-22 07:45:00,
2013-05-22 03:47:00,76.5,66.8,30.40,North,0,0.0,0.0,72,0.00,CLR,SCT,0.00,WeatherDisplay:10.37,2013-05-22 07:47:00,
2013-05-22 03:52:00,76.5,66.8,30.40,North,0,0.0,0.0,72,0.00,CLR,SCT,0.00,WeatherDisplay:10.37,2013-05-22 07:52:00,
2013-05-22 03:57:00,76.5,66.8,30.40,North,0,0.0,0.0,72,0.00,CLR,SCT,0.00,WeatherDisplay:10.37,2013-05-22 07:57:00,
2013-05-22 04:00:00,80.2,64.1,30.40,North,0,0.0,0.0,58,0.00,CLR,SCT,0.00,WeatherDisplay:10.37,2013-05-22 08:00:00,
2013-05-22 04:02:00,76.5,66.8,30.40,North,0,0.0,0.0,72,0.00,CLR,SCT,0.00,WeatherDisplay:10.37,2013-05-22 08:02:00,
2013-05-22 04:07:00,76.5,66.8,30.40,North,0,0.0,0.0,72,0.00,CLR,SCT,0.00,WeatherDisplay:10.37,2013-05-22 08:07:00,
2013-05-22 04:12:00,76.3,66.6,30.40,North,0,0.0,0.0,72,0.00,CLR,SCT,0.00,WeatherDisplay:10.37,2013-05-22 08:12:00,
2013-05-22 04:15:00,80.2,64.1,30.40,North,0,0.0,0.0,58,0.00,CLR,SCT,0.00,WeatherDisplay:10.37,2013-05-22 08:15:00,
2013-05-22 04:17:00,76.5,67.2,30.40,North,0,0.0,0.0,73,0.00,CLR,SCT,0.00,WeatherDisplay:10.37,2013-05-22 08:17:00,
2013-05-22 04:22:00,76.5,67.2,30.40,North,0,0.0,0.0,73,0.00,CLR,SCT,0.00,WeatherDisplay:10.37,2013-05-22 08:22:00,
2013-05-22 04:27:00,76.5,67.2,30.40,North,0,0.0,0.0,73,0.00,CLR,SCT,0.00,WeatherDisplay:10.37,2013-05-22 08:27:00,
2013-05-22 04:30:00,80.2,64.1,30.40,North,0,0.0,0.0,58,0.00,CLR,SCT,0.00,WeatherDisplay:10.37,2013-05-22 08:30:00,
2013-05-22 04:32:00,76.5,67.2,30.40,North,0,0.0,0.0,73,0.00,CLR,SCT,0.00,WeatherDisplay:10.37,2013-05-22 08:32:00,
2013-05-22 04:37:00,76.3,67.0,30.40,North,0,0.0,0.0,73,0.00,CLR,SCT,0.00,WeatherDisplay:10.37,2013-05-22 08:37:00,
2013-05-22 04:42:00,76.3,67.0,30.40,North,0,0.0,0.0,73,0.00,CLR,SCT,0.00,WeatherDisplay:10.37,2013-05-22 08:42:00,
2013-05-22 04:45:00,81.5,65.8,30.40,North,0,0.0,0.0,59,0.00,CLR,SCT,0.00,WeatherDisplay:10.37,2013-05-22 08:45:00,
2013-05-22 04:47:00,76.3,67.0,30.40,North,0,0.0,0.0,73,0.00,CLR,SCT,0.00,WeatherDisplay:10.37,2013-05-22 08:47:00,
2013-05-22 04:52:00,76.1,66.8,30.40,North,0,0.0,0.0,73,0.00,CLR,SCT,0.00,WeatherDisplay:10.37,2013-05-22 08:52:00,
2013-05-22 04:57:00,76.1,66.8,30.40,North,0,0.0,0.0,73,0.00,CLR,SCT,0.00,WeatherDisplay:10.37,2013-05-22 08:57:00,
2013-05-22 05:00:00,81.5,65.8,30.40,North,0,0.0,0.0,59,0.00,CLR,SCT,0.00,WeatherDisplay:10.37,2013-05-22 09:00:00,
2013-05-22 05:02:00,76.1,66.8,30.40,North,0,0.0,0.0,73,0.00,CLR,SCT,0.00,WeatherDisplay:10.37,2013-05-22 09:02:00,
2013-05-22 05:07:00,76.1,66.8,30.40,North,0,0.0,0.0,73,0.00,CLR,SCT,0.00,WeatherDisplay:10.37,2013-05-22 09:07:00,
2013-05-22 05:12:00,76.1,66.8,30.40,North,0,0.0,0.0,73,0.00,CLR,SCT,0.00,WeatherDisplay:10.37,2013-05-22 09:12:00,
2013-05-22 05:15:00,81.5,65.8,30.40,North,0,0.0,0.0,59,0.00,CLR,SCT,0.00,WeatherDisplay:10.37,2013-05-22 09:15:00,
2013-05-22 05:17:00,76.1,67.2,30.40,North,0,0.0,0.0,74,0.00,CLR,SCT,0.00,WeatherDisplay:10.37,2013-05-22 09:17:00,
2013-05-22 05:22:00,76.3,67.4,30.40,North,0,0.0,0.0,74,0.00,CLR,SCT,0.00,WeatherDisplay:10.37,2013-05-22 09:22:00,
2013-05-22 05:27:00,76.3,67.0,30.40,North,0,0.0,0.0,73,0.00,CLR,SCT,0.00,WeatherDisplay:10.37,2013-05-22 09:27:00,
2013-05-22 05:30:00,81.5,65.8,30.40,North,0,0.0,0.0,59,0.00,CLR,SCT,0.00,WeatherDisplay:10.37,2013-05-22 09:30:00,
2013-05-22 05:32:00,76.1,66.8,30.40,North,0,0.0,0.0,73,0.00,CLR,SCT,0.00,WeatherDisplay:10.37,2013-05-22 09:32:00,
2013-05-22 05:37:00,76.1,66.8,30.40,North,0,0.0,0.0,73,0.00,CLR,SCT,0.00,WeatherDisplay:10.37,2013-05-22 09:37:00,
2013-05-22 05:42:00,75.9,67.0,30.40,North,0,0.0,0.0,74,0.00,CLR,SCT,0.00,WeatherDisplay:10.37,2013-05-22 09:42:00,
2013-05-22 05:45:00,84.6,67.1,30.40,North,0,0.0,0.0,56,0.00,CLR,SCT,0.00,WeatherDisplay:10.37,2013-05-22 09:45:00,
2013-05-22 05:47:00,75.7,67.2,30.40,North,0,0.0,0.0,75,0.00,CLR,SCT,0.00,WeatherDisplay:10.37,2013-05-22 09:47:00,
2013-05-22 05:52:00,75.6,67.5,30.40,North,0,0.0,0.0,76,0.00,CLR,SCT,0.00,WeatherDisplay:10.37,2013-05-22 09:52:00,
2013-05-22 05:57:00,75.6,67.8,30.40,North,0,0.0,0.0,77,0.00,CLR,SCT,0.00,WeatherDisplay:10.37,2013-05-22 09:57:00,
2013-05-22 06:00:00,84.6,67.1,30.40,North,0,0.0,0.0,56,0.00,CLR,SCT,0.00,WeatherDisplay:10.37,2013-05-22 10:00:00,
2013-05-22 06:02:00,75.4,67.7,30.40,North,0,0.0,0.0,77,0.00,CLR,SCT,0.00,WeatherDisplay:10.37,2013-05-22 10:02:00,
2013-05-22 06:07:00,75.4,68.0,30.40,North,0,0.0,0.0,78,0.00,CLR,SCT,0.00,WeatherDisplay:10.37,2013-05-22 10:07:00,
2013-05-22 06:12:00,75.4,68.0,30.40,North,0,0.0,0.0,78,0.00,CLR,SCT,0.00,WeatherDisplay:10.37,2013-05-22 10:12:00,
2013-05-22 06:15:00,84.6,67.1,30.40,North,0,0.0,0.0,56,0.00,CLR,SCT,0.00,WeatherDisplay:10.37,2013-05-22 10:15:00,
2013-05-22 06:17:00,75.4,68.0,30.40,North,0,0.0,0.0,78,0.00,CLR,SCT,0.00,WeatherDisplay:10.37,2013-05-22 10:17:00,
2013-05-22 06:22:00,75.4,68.4,30.40,North,0,0.0,0.0,79,0.00,CLR,SCT,0.00,WeatherDisplay:10.37,2013-05-22 10:22:00,
2013-05-22 06:27:00,75.4,68.4,30.40,North,0,0.0,0.0,79,0.00,CLR,SCT,0.00,WeatherDisplay:10.37,2013-05-22 10:27:00,
2013-05-22 06:30:00,84.6,67.1,30.40,North,0,0.0,0.0,56,0.00,CLR,SCT,0.00,WeatherDisplay:10.37,2013-05-22 10:30:00,
2013-05-22 06:32:00,75.4,68.4,30.40,North,0,0.0,0.0,79,0.00,CLR,SCT,0.00,WeatherDisplay:10.37,2013-05-22 10:32:00,
2013-05-22 06:37:00,75.2,68.6,30.40,North,0,0.0,0.0,80,0.00,CLR,SCT,0.00,WeatherDisplay:10.37,2013-05-22 10:37:00,
2013-05-22 06:42:00,74.7,68.1,30.40,North,0,0.0,0.0,80,0.00,CLR,SCT,0.00,WeatherDisplay:10.37,2013-05-22 10:42:00,
2013-05-22 06:45:00,82.6,62.6,30.40,North,0,0.0,0.0,51,0.00,CLR,SCT,0.00,WeatherDisplay:10.37,2013-05-22 10:45:00,
2013-05-22 06:47:00,72.9,66.3,30.40,North,0,0.0,0.0,80,0.00,CLR,SCT,0.00,WeatherDisplay:10.37,2013-05-22 10:47:00,
2013-05-22 06:52:00,71.8,64.9,30.40,North,0,0.0,0.0,79,0.00,CLR,SCT,0.00,WeatherDisplay:10.37,2013-05-22 10:52:00,
2013-05-22 06:57:00,71.8,65.6,30.40,North,0,0.0,0.0,81,0.00,CLR,SCT,0.00,WeatherDisplay:10.37,2013-05-22 10:57:00,
2013-05-22 07:00:00,82.6,62.6,30.40,North,0,0.0,0.0,51,0.00,CLR,SCT,0.00,WeatherDisplay:10.37,2013-05-22 11:00:00,
2013-05-22 07:02:00,72.1,66.0,30.40,North,0,0.0,0.0,81,0.00,CLR,SCT,0.00,WeatherDisplay:10.37,2013-05-22 11:02:00,
2013-05-22 07:07:00,72.3,66.2,30.40,North,0,0.0,0.0,81,0.00,CLR,SCT,0.00,WeatherDisplay:10.37,2013-05-22 11:07:00,
2013-05-22 07:12:00,72.1,66.0,30.40,North,0,0.0,0.0,81,0.00,CLR,SCT,0.00,WeatherDisplay:10.37,2013-05-22 11:12:00,
2013-05-22 07:15:00,82.6,62.6,30.40,North,0,0.0,0.0,51,0.00,CLR,SCT,0.00,WeatherDisplay:10.37,2013-05-22 11:15:00,
2013-05-22 07:17:00,72.3,66.2,30.40,North,0,0.0,0.0,81,0.00,CLR,SCT,0.00,WeatherDisplay:10.37,2013-05-22 11:17:00,
2013-05-22 07:22:00,72.3,66.2,30.40,North,0,0.0,0.0,81,0.00,CLR,SCT,0.00,WeatherDisplay:10.37,2013-05-22 11:22:00,
2013-05-22 07:27:00,72.5,66.7,30.40,North,0,0.0,0.0,82,0.00,CLR,SCT,0.00,WeatherDisplay:10.37,2013-05-22 11:27:00,
2013-05-22 07:30:00,82.6,62.6,30.40,North,0,0.0,0.0,51,0.00,CLR,SCT,0.00,WeatherDisplay:10.37,2013-05-22 11:30:00,
2013-05-22 07:32:00,72.5,66.7,30.40,North,0,0.0,0.0,82,0.00,CLR,SCT,0.00,WeatherDisplay:10.37,2013-05-22 11:32:00,
2013-05-22 07:37:00,72.9,66.7,30.40,North,0,0.0,0.0,81,0.00,CLR,SCT,0.00,WeatherDisplay:10.37,2013-05-22 11:37:00,
2013-05-22 07:42:00,73.0,66.9,30.40,North,0,0.0,0.0,81,0.00,CLR,SCT,0.00,WeatherDisplay:10.37,2013-05-22 11:42:00,
2013-05-22 07:45:00,87.3,63.3,30.40,North,0,0.0,0.0,45,0.00,CLR,SCT,0.00,WeatherDisplay:10.37,2013-05-22 11:45:00,
2013-05-22 07:47:00,73.0,66.9,30.40,North,0,0.0,0.0,81,0.00,CLR,SCT,0.00,WeatherDisplay:10.37,2013-05-22 11:47:00,
2013-05-22 07:52:00,73.0,67.2,30.40,North,0,0.0,0.0,82,0.00,CLR,SCT,0.00,WeatherDisplay:10.37,2013-05-22 11:52:00,
2013-05-22 07:57:00,73.2,67.4,30.40,North,0,0.0,0.0,82,0.00,CLR,SCT,0.00,WeatherDisplay:10.37,2013-05-22 11:57:00,
2013-05-22 08:00:00,87.3,63.3,30.40,North,0,0.0,0.0,45,0.00,CLR,SCT,0.00,WeatherDisplay:10.37,2013-05-22 12:00:00,
2013-05-22 08:03:00,73.2,67.4,30.40,North,0,0.0,0.0,82,0.00,CLR,SCT,0.00,WeatherDisplay:10.37,2013-05-22 12:03:00,
2013-05-22 08:08:00,73.2,67.4,30.40,North,0,0.0,0.0,82,0.00,CLR,SCT,0.00,WeatherDisplay:10.37,2013-05-22 12:08:00,
2013-05-22 08:13:00,73.0,67.2,30.40,North,0,0.0,0.0,82,0.00,CLR,SCT,0.00,WeatherDisplay:10.37,2013-05-22 12:13:00,
2013-05-22 08:15:00,87.3,63.3,30.40,North,0,0.0,0.0,45,0.00,CLR,SCT,0.00,WeatherDisplay:10.37,2013-05-22 12:15:00,
2013-05-22 08:18:00,73.0,67.2,30.40,North,0,0.0,0.0,82,0.00,CLR,SCT,0.00,WeatherDisplay:10.37,2013-05-22 12:18:00,
2013-05-22 08:23:00,73.2,67.4,30.40,North,0,0.0,0.0,82,0.00,CLR,SCT,0.00,WeatherDisplay:10.37,2013-05-22 12:23:00,
2013-05-22 08:28:00,73.2,67.4,30.40,North,0,0.0,0.0,82,0.00,CLR,SCT,0.00,WeatherDisplay:10.37,2013-05-22 12:28:00,
2013-05-22 08:30:00,87.3,63.3,30.40,North,0,0.0,0.0,45,0.00,CLR,SCT,0.00,WeatherDisplay:10.37,2013-05-22 12:30:00,
2013-05-22 08:33:00,73.4,67.2,30.40,North,0,0.0,0.0,81,0.00,CLR,SCT,0.00,WeatherDisplay:10.37,2013-05-22 12:33:00,
2013-05-22 08:38:00,73.4,67.2,30.40,North,0,0.0,0.0,81,0.00,CLR,SCT,0.00,WeatherDisplay:10.37,2013-05-22 12:38:00,
2013-05-22 08:43:00,73.4,67.2,30.40,North,0,0.0,0.0,81,0.00,CLR,SCT,0.00,WeatherDisplay:10.37,2013-05-22 12:43:00,
2013-05-22 08:45:00,81.3,60.9,30.40,North,0,0.0,0.0,50,0.00,CLR,SCT,0.00,WeatherDisplay:10.37,2013-05-22 12:45:00,
2013-05-22 08:48:00,73.6,67.4,30.40,North,0,0.0,0.0,81,0.00,CLR,SCT,0.00,WeatherDisplay:10.37,2013-05-22 12:48:00,
2013-05-22 08:53:00,73.6,67.4,30.40,North,0,0.0,0.0,81,0.00,CLR,SCT,0.00,WeatherDisplay:10.37,2013-05-22 12:53:00,
2013-05-22 08:58:00,73.8,67.9,30.40,North,0,0.0,0.0,82,0.00,CLR,SCT,0.00,WeatherDisplay:10.37,2013-05-22 12:58:00,
2013-05-22 09:00:00,81.3,60.9,30.40,North,0,0.0,0.0,50,0.00,CLR,SCT,0.00,WeatherDisplay:10.37,2013-05-22 13:00:00,
2013-05-22 09:03:00,73.9,68.1,30.40,North,0,0.0,0.0,82,0.00,CLR,SCT,0.00,WeatherDisplay:10.37,2013-05-22 13:03:00,
2013-05-22 09:08:00,74.5,68.6,30.40,North,0,0.0,0.0,82,0.00,CLR,SCT,0.00,WeatherDisplay:10.37,2013-05-22 13:08:00,
2013-05-22 09:13:00,74.8,69.0,30.40,North,0,0.0,0.0,82,0.00,CLR,SCT,0.00,WeatherDisplay:10.37,2013-05-22 13:13:00,
2013-05-22 09:15:00,81.3,60.9,30.40,North,0,0.0,0.0,50,0.00,CLR,SCT,0.00,WeatherDisplay:10.37,2013-05-22 13:15:00,
2013-05-22 09:18:00,75.0,69.1,30.40,North,0,0.0,0.0,82,0.00,CLR,SCT,0.00,WeatherDisplay:10.37,2013-05-22 13:18:00,
2013-05-22 09:23:00,75.2,69.3,30.40,North,0,0.0,0.0,82,0.00,CLR,SCT,0.00,WeatherDisplay:10.37,2013-05-22 13:23:00,
2013-05-22 09:28:00,75.0,69.5,30.40,North,0,0.0,0.0,83,0.00,CLR,SCT,0.00,WeatherDisplay:10.37,2013-05-22 13:28:00,
2013-05-22 09:30:00,81.3,60.9,30.40,North,0,0.0,0.0,50,0.00,CLR,SCT,0.00,WeatherDisplay:10.37,2013-05-22 13:30:00,
2013-05-22 09:33:00,74.8,69.3,30.40,North,0,0.0,0.0,83,0.00,CLR,SCT,0.00,WeatherDisplay:10.37,2013-05-22 13:33:00,
2013-05-22 09:38:00,74.8,69.0,30.40,North,0,0.0,0.0,82,0.00,CLR,SCT,0.00,WeatherDisplay:10.37,2013-05-22 13:38:00,
2013-05-22 09:43:00,74.7,68.8,30.40,North,0,0.0,0.0,82,0.00,CLR,SCT,0.00,WeatherDisplay:10.37,2013-05-22 13:43:00,
2013-05-22 09:45:00,79.3,60.7,30.40,North,0,0.0,0.0,53,0.00,CLR,SCT,0.00,WeatherDisplay:10.37,2013-05-22 13:45:00,
2013-05-22 09:48:00,74.7,68.8,30.40,North,0,0.0,0.0,82,0.00,CLR,SCT,0.00,WeatherDisplay:10.37,2013-05-22 13:48:00,
2013-05-22 09:53:00,75.0,69.1,30.40,North,0,0.0,0.0,82,0.00,CLR,SCT,0.00,WeatherDisplay:10.37,2013-05-22 13:53:00,
2013-05-22 09:58:00,75.2,69.3,30.40,North,0,0.0,0.0,82,0.00,CLR,SCT,0.00,WeatherDisplay:10.37,2013-05-22 13:58:00,
2013-05-22 10:00:00,79.3,60.7,30.40,North,0,0.0,0.0,53,0.00,CLR,SCT,0.00,WeatherDisplay:10.37,2013-05-22 14:00:00,
2013-05-22 10:03:00,75.7,69.5,30.40,North,0,0.0,0.0,81,0.00,CLR,SCT,0.00,WeatherDisplay:10.37,2013-05-22 14:03:00,
2013-05-22 10:08:00,75.7,69.5,30.40,North,0,0.0,0.0,81,0.00,CLR,SCT,0.00,WeatherDisplay:10.37,2013-05-22 14:08:00,
2013-05-22 10:13:00,75.9,69.7,30.40,North,0,0.0,0.0,81,0.00,CLR,SCT,0.00,WeatherDisplay:10.37,2013-05-22 14:13:00,
2013-05-22 10:15:00,79.3,60.7,30.40,North,0,0.0,0.0,53,0.00,CLR,SCT,0.00,WeatherDisplay:10.37,2013-05-22 14:15:00,
2013-05-22 10:18:00,76.1,69.8,30.40,North,0,0.0,0.0,81,0.00,CLR,SCT,0.00,WeatherDisplay:10.37,2013-05-22 14:18:00,
2013-05-22 10:23:00,76.3,70.0,30.40,North,0,0.0,0.0,81,0.00,CLR,SCT,0.00,WeatherDisplay:10.37,2013-05-22 14:23:00,
2013-05-22 10:28:00,76.6,70.0,30.40,North,0,0.0,0.0,80,0.00,CLR,SCT,0.00,WeatherDisplay:10.37,2013-05-22 14:28:00,
2013-05-22 10:30:00,79.3,60.7,30.40,North,0,0.0,0.0,53,0.00,CLR,SCT,0.00,WeatherDisplay:10.37,2013-05-22 14:30:00,
2013-05-22 10:33:00,77.2,70.5,30.40,North,0,0.0,0.0,80,0.00,CLR,SCT,0.00,WeatherDisplay:10.37,2013-05-22 14:33:00,
2013-05-22 10:38:00,77.4,70.7,30.40,North,0,0.0,0.0,80,0.00,CLR,SCT,0.00,WeatherDisplay:10.37,2013-05-22 14:38:00,
2013-05-22 10:43:00,77.4,70.3,30.40,North,0,0.0,0.0,79,0.00,CLR,SCT,0.00,WeatherDisplay:10.37,2013-05-22 14:43:00,
2013-05-22 10:45:00,79.0,63.9,30.40,North,0,0.0,0.0,60,0.00,CLR,SCT,0.00,WeatherDisplay:10.37,2013-05-22 14:45:00,
2013-05-22 10:48:00,77.7,70.7,30.40,North,0,0.0,0.0,79,0.00,CLR,SCT,0.00,WeatherDisplay:10.37,2013-05-22 14:48:00,
2013-05-22 10:53:00,77.9,70.9,30.40,North,0,0.0,0.0,79,0.00,CLR,SCT,0.00,WeatherDisplay:10.37,2013-05-22 14:53:00,
2013-05-22 10:58:00,77.9,70.9,30.40,North,0,0.0,0.0,79,0.00,CLR,SCT,0.00,WeatherDisplay:10.37,2013-05-22 14:58:00,
2013-05-22 11:00:00,79.0,63.9,30.40,North,0,0.0,0.0,60,0.00,CLR,SCT,0.00,WeatherDisplay:10.37,2013-05-22 15:00:00,
2013-05-22 11:03:00,78.6,71.2,30.40,North,0,0.0,0.0,78,0.00,CLR,SCT,0.00,WeatherDisplay:10.37,2013-05-22 15:03:00,
2013-05-22 11:08:00,78.6,71.2,30.40,North,0,0.0,0.0,78,0.00,CLR,SCT,0.00,WeatherDisplay:10.37,2013-05-22 15:08:00,
2013-05-22 11:13:00,79.0,71.2,30.40,North,0,0.0,0.0,77,0.00,CLR,SCT,0.00,WeatherDisplay:10.37,2013-05-22 15:13:00,
2013-05-22 11:15:00,79.0,63.9,30.40,North,0,0.0,0.0,60,0.00,CLR,SCT,0.00,WeatherDisplay:10.37,2013-05-22 15:15:00,
2013-05-22 11:18:00,79.5,71.3,30.40,North,0,0.0,0.0,76,0.00,CLR,SCT,0.00,WeatherDisplay:10.37,2013-05-22 15:18:00,
2013-05-22 11:23:00,80.2,70.8,30.40,North,0,0.0,0.0,73,0.00,CLR,SCT,0.00,WeatherDisplay:10.37,2013-05-22 15:23:00,
2013-05-22 11:28:00,81.0,71.1,30.40,North,0,0.0,0.0,72,0.00,CLR,SCT,0.00,WeatherDisplay:10.37,2013-05-22 15:28:00,
2013-05-22 11:30:00,79.0,63.9,30.40,North,0,0.0,0.0,60,0.00,CLR,SCT,0.00,WeatherDisplay:10.37,2013-05-22 15:30:00,
2013-05-22 11:33:00,81.3,70.6,30.40,North,0,0.0,0.0,70,0.00,CLR,SCT,0.00,WeatherDisplay:10.37,2013-05-22 15:33:00,
2013-05-22 11:38:00,81.5,70.8,30.40,North,0,0.0,0.0,70,0.00,CLR,SCT,0.00,WeatherDisplay:10.37,2013-05-22 15:38:00,
2013-05-22 11:43:00,81.9,69.8,30.40,North,0,0.0,0.0,67,0.00,CLR,SCT,0.00,WeatherDisplay:10.37,2013-05-22 15:43:00,
2013-05-22 11:45:00,78.6,63.1,30.40,North,0,0.0,0.0,59,0.00,CLR,SCT,0.00,WeatherDisplay:10.37,2013-05-22 15:45:00,
2013-05-22 11:48:00,82.2,69.7,30.40,North,0,0.0,0.0,66,0.00,CLR,SCT,0.00,WeatherDisplay:10.37,2013-05-22 15:48:00,
2013-05-22 11:53:00,82.8,68.9,30.40,North,0,0.0,0.0,63,0.00,CLR,SCT,0.00,WeatherDisplay:10.37,2013-05-22 15:53:00,
2013-05-22 11:58:00,83.1,67.3,30.40,North,0,0.0,0.0,59,0.00,CLR,SCT,0.00,WeatherDisplay:10.37,2013-05-22 15:58:00,
2013-05-22 12:00:00,78.6,63.1,30.40,North,0,0.0,0.0,59,0.00,CLR,SCT,0.00,WeatherDisplay:10.37,2013-05-22 16:00:00,
2013-05-22 12:03:00,82.9,67.1,30.40,North,0,0.0,0.0,59,0.00,CLR,SCT,0.00,WeatherDisplay:10.37,2013-05-22 16:03:00,
2013-05-22 12:08:00,83.1,67.3,30.40,North,0,0.0,0.0,59,0.00,CLR,SCT,0.00,WeatherDisplay:10.37,2013-05-22 16:08:00,
2013-05-22 12:13:00,82.9,67.1,30.40,North,0,0.0,0.0,59,0.00,CLR,SCT,0.00,WeatherDisplay:10.37,2013-05-22 16:13:00,
2013-05-22 12:15:00,78.6,63.1,30.40,North,0,0.0,0.0,59,0.00,CLR,SCT,0.00,WeatherDisplay:10.37,2013-05-22 16:15:00,
2013-05-22 12:18:00,83.1,66.8,30.40,North,0,0.0,0.0,58,0.00,CLR,SCT,0.00,WeatherDisplay:10.37,2013-05-22 16:18:00,
2013-05-22 12:23:00,83.5,67.6,30.40,North,0,0.0,0.0,59,0.00,CLR,SCT,0.00,WeatherDisplay:10.37,2013-05-22 16:23:00,
2013-05-22 12:28:00,84.2,67.8,30.40,North,0,0.0,0.0,58,0.00,CLR,SCT,0.00,WeatherDisplay:10.37,2013-05-22 16:28:00,
2013-05-22 12:30:00,78.6,63.1,30.40,North,0,0.0,0.0,59,0.00,CLR,SCT,0.00,WeatherDisplay:10.37,2013-05-22 16:30:00,
2013-05-22 12:33:00,84.6,68.2,30.40,North,0,0.0,0.0,58,0.00,CLR,SCT,0.00,WeatherDisplay:10.37,2013-05-22 16:33:00,
2013-05-22 12:38:00,84.9,68.0,30.40,North,0,0.0,0.0,57,0.00,CLR,SCT,0.00,WeatherDisplay:10.37,2013-05-22 16:38:00,
2013-05-22 12:43:00,84.2,67.3,30.40,North,0,0.0,0.0,57,0.00,CLR,SCT,0.00,WeatherDisplay:10.37,2013-05-22 16:43:00,
2013-05-22 12:45:00,78.1,62.6,30.40,North,0,0.0,0.0,59,0.00,CLR,SCT,0.00,WeatherDisplay:10.37,2013-05-22 16:45:00,
2013-05-22 12:48:00,83.7,66.8,30.40,North,0,0.0,0.0,57,0.00,CLR,SCT,0.00,WeatherDisplay:10.37,2013-05-22 16:48:00,
2013-05-22 12:53:00,83.3,67.5,30.40,North,0,0.0,0.0,59,0.00,CLR,SCT,0.00,WeatherDisplay:10.37,2013-05-22 16:53:00,
2013-05-22 12:59:00,83.1,67.3,30.40,North,0,0.0,0.0,59,0.00,CLR,SCT,0.00,WeatherDisplay:10.37,2013-05-22 16:59:00,
2013-05-22 13:00:00,78.1,62.6,30.40,North,0,0.0,0.0,59,0.00,CLR,SCT,0.00,WeatherDisplay:10.37,2013-05-22 17:00:00,
2013-05-22 13:04:00,84.2,67.8,30.40,North,0,0.0,0.0,58,0.00,CLR,SCT,0.00,WeatherDisplay:10.37,2013-05-22 17:04:00,
2013-05-22 13:09:00,84.7,67.3,30.40,North,0,0.0,0.0,56,0.00,CLR,SCT,0.00,WeatherDisplay:10.37,2013-05-22 17:09:00,
2013-05-22 13:14:00,84.7,67.3,30.40,North,0,0.0,0.0,56,0.00,CLR,SCT,0.00,WeatherDisplay:10.37,2013-05-22 17:14:00,
2013-05-22 13:15:00,78.1,62.6,30.40,North,0,0.0,0.0,59,0.00,CLR,SCT,0.00,WeatherDisplay:10.37,2013-05-22 17:15:00,
2013-05-22 13:19:00,84.9,65.9,30.40,North,0,0.0,0.0,53,0.00,CLR,SCT,0.00,WeatherDisplay:10.37,2013-05-22 17:19:00,
2013-05-22 13:24:00,84.9,63.6,30.40,North,0,0.0,0.0,49,0.00,CLR,SCT,0.00,WeatherDisplay:10.37,2013-05-22 17:24:00,
2013-05-22 13:29:00,84.7,62.3,30.40,North,0,0.0,0.0,47,0.00,CLR,SCT,0.00,WeatherDisplay:10.37,2013-05-22 17:29:00,
2013-05-22 13:30:00,78.1,62.6,30.40,North,0,0.0,0.0,59,0.00,CLR,SCT,0.00,WeatherDisplay:10.37,2013-05-22 17:30:00,
2013-05-22 13:34:00,84.7,61.7,30.40,North,0,0.0,0.0,46,0.00,CLR,SCT,0.00,WeatherDisplay:10.37,2013-05-22 17:34:00,
2013-05-22 13:39:00,84.6,61.5,30.40,North,0,0.0,0.0,46,0.00,CLR,SCT,0.00,WeatherDisplay:10.37,2013-05-22 17:39:00,
2013-05-22 13:44:00,84.9,62.4,30.40,North,0,0.0,0.0,47,0.00,CLR,SCT,0.00,WeatherDisplay:10.37,2013-05-22 17:44:00,
2013-05-22 13:45:00,77.7,65.5,30.40,North,0,0.0,0.0,66,0.00,CLR,SCT,0.00,WeatherDisplay:10.37,2013-05-22 17:45:00,
2013-05-22 13:49:00,85.3,63.4,30.40,North,0,0.0,0.0,48,0.00,CLR,SCT,0.00,WeatherDisplay:10.37,2013-05-22 17:49:00,
2013-05-22 13:54:00,85.5,63.5,30.40,North,0,0.0,0.0,48,0.00,CLR,SCT,0.00,WeatherDisplay:10.37,2013-05-22 17:54:00,
2013-05-22 13:59:00,85.6,64.3,30.40,North,0,0.0,0.0,49,0.00,CLR,SCT,0.00,WeatherDisplay:10.37,2013-05-22 17:59:00,
2013-05-22 14:00:00,77.7,65.5,30.40,North,0,0.0,0.0,66,0.00,CLR,SCT,0.00,WeatherDisplay:10.37,2013-05-22 18:00:00,
2013-05-22 14:04:00,85.3,65.1,30.40,North,0,0.0,0.0,51,0.00,CLR,SCT,0.00,WeatherDisplay:10.37,2013-05-22 18:04:00,
2013-05-22 14:09:00,85.5,66.4,30.40,North,0,0.0,0.0,53,0.00,CLR,SCT,0.00,WeatherDisplay:10.37,2013-05-22 18:09:00,
2013-05-22 14:14:00,84.7,66.3,30.40,North,0,0.0,0.0,54,0.00,CLR,SCT,0.00,WeatherDisplay:10.37,2013-05-22 18:14:00,
2013-05-22 14:15:00,77.7,65.5,30.40,North,0,0.0,0.0,66,0.00,CLR,SCT,0.00,WeatherDisplay:10.37,2013-05-22 18:15:00,
2013-05-22 14:19:00,83.8,65.9,30.40,North,0,0.0,0.0,55,0.00,CLR,SCT,0.00,WeatherDisplay:10.37,2013-05-22 18:19:00,
2013-05-22 14:24:00,83.5,65.6,30.40,North,0,0.0,0.0,55,0.00,CLR,SCT,0.00,WeatherDisplay:10.37,2013-05-22 18:24:00,
2013-05-22 14:29:00,83.1,65.8,30.40,North,0,0.0,0.0,56,0.00,CLR,SCT,0.00,WeatherDisplay:10.37,2013-05-22 18:29:00,
2013-05-22 14:30:00,77.7,65.5,30.40,North,0,0.0,0.0,66,0.00,CLR,SCT,0.00,WeatherDisplay:10.37,2013-05-22 18:30:00,
2013-05-22 14:34:00,82.2,62.8,30.40,North,0,0.0,0.0,52,0.00,CLR,SCT,0.00,WeatherDisplay:10.37,2013-05-22 18:34:00,
2013-05-22 14:39:00,81.7,62.9,30.40,North,0,0.0,0.0,53,0.00,CLR,SCT,0.00,WeatherDisplay:10.37,2013-05-22 18:39:00,
2013-05-22 14:44:00,81.1,62.9,30.40,North,0,0.0,0.0,54,0.00,CLR,SCT,0.00,WeatherDisplay:10.37,2013-05-22 18:44:00,
2013-05-22 14:45:00,77.2,65.8,30.40,North,0,0.0,0.0,68,0.00,CLR,SCT,0.00,WeatherDisplay:10.37,2013-05-22 18:45:00,
2013-05-22 14:49:00,80.6,62.9,30.40,North,0,0.0,0.0,55,0.00,CLR,SCT,0.00,WeatherDisplay:10.37,2013-05-22 18:49:00,
2013-05-22 14:54:00,80.1,62.9,30.40,North,0,0.0,0.0,56,0.00,CLR,SCT,0.00,WeatherDisplay:10.37,2013-05-22 18:54:00,
2013-05-22 14:59:00,79.9,63.3,30.40,North,0,0.0,0.0,57,0.00,CLR,SCT,0.00,WeatherDisplay:10.37,2013-05-22 18:59:00,
2013-05-22 15:00:00,77.2,65.8,30.40,North,0,0.0,0.0,68,0.00,CLR,SCT,0.00,WeatherDisplay:10.37,2013-05-22 19:00:00,
2013-05-22 15:04:00,80.2,64.6,30.40,North,0,0.0,0.0,59,0.00,CLR,SCT,0.00,WeatherDisplay:10.37,2013-05-22 19:04:00,
2013-05-22 15:09:00,80.2,65.1,30.40,North,0,0.0,0.0,60,0.00,CLR,SCT,0.00,WeatherDisplay:10.37,2013-05-22 19:09:00,
2013-05-22 15:14:00,80.2,65.1,30.40,North,0,0.0,0.0,60,0.00,CLR,SCT,0.00,WeatherDisplay:10.37,2013-05-22 19:14:00,
2013-05-22 15:15:00,77.2,65.8,30.40,North,0,0.0,0.0,68,0.00,CLR,SCT,0.00,WeatherDisplay:10.37,2013-05-22 19:15:00,
2013-05-22 15:19:00,80.4,65.3,30.40,North,0,0.0,0.0,60,0.00,CLR,SCT,0.00,WeatherDisplay:10.37,2013-05-22 19:19:00,
2013-05-22 15:24:00,80.4,65.3,30.40,North,0,0.0,0.0,60,0.00,CLR,SCT,0.00,WeatherDisplay:10.37,2013-05-22 19:24:00,
2013-05-22 15:29:00,80.4,65.7,30.40,North,0,0.0,0.0,61,0.00,CLR,SCT,0.00,WeatherDisplay:10.37,2013-05-22 19:29:00,
2013-05-22 15:30:00,77.2,65.8,30.40,North,0,0.0,0.0,68,0.00,CLR,SCT,0.00,WeatherDisplay:10.37,2013-05-22 19:30:00,
2013-05-22 15:34:00,80.4,65.7,30.40,North,0,0.0,0.0,61,0.00,CLR,SCT,0.00,WeatherDisplay:10.37,2013-05-22 19:34:00,
2013-05-22 15:39:00,80.6,65.4,30.40,North,0,0.0,0.0,60,0.00,CLR,SCT,0.00,WeatherDisplay:10.37,2013-05-22 19:39:00,
2013-05-22 15:44:00,81.0,65.8,30.40,North,0,0.0,0.0,60,0.00,CLR,SCT,0.00,WeatherDisplay:10.37,2013-05-22 19:44:00,
2013-05-22 15:45:00,76.6,64.9,30.40,North,0,0.0,0.0,67,0.00,CLR,SCT,0.00,WeatherDisplay:10.37,2013-05-22 19:45:00,
2013-05-22 15:49:00,81.3,66.1,30.40,North,0,0.0,0.0,60,0.00,CLR,SCT,0.00,WeatherDisplay:10.37,2013-05-22 19:49:00,
2013-05-22 15:54:00,81.3,65.6,30.40,North,0,0.0,0.0,59,0.00,CLR,SCT,0.00,WeatherDisplay:10.37,2013-05-22 19:54:00,
2013-05-22 15:59:00,81.3,65.6,30.40,North,0,0.0,0.0,59,0.00,CLR,SCT,0.00,WeatherDisplay:10.37,2013-05-22 19:59:00,
2013-05-22 16:00:00,76.6,64.9,30.40,North,0,0.0,0.0,67,0.00,CLR,SCT,0.00,WeatherDisplay:10.37,2013-05-22 20:00:00,
2013-05-22 16:04:00,81.5,65.8,30.40,North,0,0.0,0.0,59,0.00,CLR,SCT,0.00,WeatherDisplay:10.37,2013-05-22 20:04:00,
2013-05-22 16:09:00,81.9,66.1,30.40,North,0,0.0,0.0,59,0.00,CLR,SCT,0.00,WeatherDisplay:10.37,2013-05-22 20:09:00,
2013-05-22 16:14:00,81.7,65.5,30.40,North,0,0.0,0.0,58,0.00,CLR,SCT,0.00,WeatherDisplay:10.37,2013-05-22 20:14:00,
2013-05-22 16:15:00,76.6,64.9,30.40,North,0,0.0,0.0,67,0.00,CLR,SCT,0.00,WeatherDisplay:10.37,2013-05-22 20:15:00,
2013-05-22 16:19:00,81.0,64.3,30.40,North,0,0.0,0.0,57,0.00,CLR,SCT,0.00,WeatherDisplay:10.37,2013-05-22 20:19:00,
2013-05-22 16:24:00,81.3,65.1,30.40,North,0,0.0,0.0,58,0.00,CLR,SCT,0.00,WeatherDisplay:10.37,2013-05-22 20:24:00,
2013-05-22 16:29:00,81.9,65.6,30.40,North,0,0.0,0.0,58,0.00,CLR,SCT,0.00,WeatherDisplay:10.37,2013-05-22 20:29:00,
2013-05-22 16:30:00,76.6,64.9,30.40,North,0,0.0,0.0,67,0.00,CLR,SCT,0.00,WeatherDisplay:10.37,2013-05-22 20:30:00,
2013-05-22 16:34:00,82.8,66.0,30.40,North,0,0.0,0.0,57,0.00,CLR,SCT,0.00,WeatherDisplay:10.37,2013-05-22 20:34:00,
2013-05-22 16:39:00,83.3,67.0,30.40,North,0,0.0,0.0,58,0.00,CLR,SCT,0.00,WeatherDisplay:10.37,2013-05-22 20:39:00,
2013-05-22 16:44:00,83.3,68.4,30.40,North,0,0.0,0.0,61,0.00,CLR,SCT,0.00,WeatherDisplay:10.37,2013-05-22 20:44:00,
2013-05-22 16:45:00,76.5,65.1,30.40,North,0,0.0,0.0,68,0.00,CLR,SCT,0.00,WeatherDisplay:10.37,2013-05-22 20:45:00,
2013-05-22 16:49:00,83.8,69.4,30.40,North,0,0.0,0.0,62,0.00,CLR,SCT,0.00,WeatherDisplay:10.37,2013-05-22 20:49:00,
2013-05-22 16:54:00,84.2,68.8,30.40,North,0,0.0,0.0,60,0.00,CLR,SCT,0.00,WeatherDisplay:10.37,2013-05-22 20:54:00,
2013-05-22 16:59:00,84.6,67.6,30.40,North,0,0.0,0.0,57,0.00,CLR,SCT,0.00,WeatherDisplay:10.37,2013-05-22 20:59:00,
2013-05-22 17:00:00,76.5,65.1,30.40,North,0,0.0,0.0,68,0.00,CLR,SCT,0.00,WeatherDisplay:10.37,2013-05-22 21:00:00,
2013-05-22 17:04:00,84.6,65.0,30.40,North,0,0.0,0.0,52,0.00,CLR,SCT,0.00,WeatherDisplay:10.37,2013-05-22 21:04:00,
2013-05-22 17:09:00,85.1,63.8,30.40,North,0,0.0,0.0,49,0.00,CLR,SCT,0.00,WeatherDisplay:10.37,2013-05-22 21:09:00,
2013-05-22 17:14:00,86.2,63.6,30.40,North,0,0.0,0.0,47,0.00,CLR,SCT,0.00,WeatherDisplay:10.37,2013-05-22 21:14:00,
2013-05-22 17:15:00,76.5,65.1,30.40,North,0,0.0,0.0,68,0.00,CLR,SCT,0.00,WeatherDisplay:10.37,2013-05-22 21:15:00,
2013-05-22 17:19:00,86.4,63.1,30.40,North,0,0.0,0.0,46,0.00,CLR,SCT,0.00,WeatherDisplay:10.37,2013-05-22 21:19:00,
2013-05-22 17:24:00,85.8,62.6,30.40,North,0,0.0,0.0,46,0.00,CLR,SCT,0.00,WeatherDisplay:10.37,2013-05-22 21:24:00,
2013-05-22 17:29:00,84.9,63.0,30.40,North,0,0.0,0.0,48,0.00,CLR,SCT,0.00,WeatherDisplay:10.37,2013-05-22 21:29:00,
2013-05-22 17:30:00,76.5,65.1,30.40,North,0,0.0,0.0,68,0.00,CLR,SCT,0.00,WeatherDisplay:10.37,2013-05-22 21:30:00,
2013-05-22 17:34:00,84.4,63.1,30.40,North,0,0.0,0.0,49,0.00,CLR,SCT,0.00,WeatherDisplay:10.37,2013-05-22 21:34:00,
2013-05-22 17:39:00,83.7,63.0,30.40,North,0,0.0,0.0,50,0.00,CLR,SCT,0.00,WeatherDisplay:10.37,2013-05-22 21:39:00,
2013-05-22 17:44:00,83.1,63.1,30.40,North,0,0.0,0.0,51,0.00,CLR,SCT,0.00,WeatherDisplay:10.37,2013-05-22 21:44:00,
2013-05-22 17:45:00,75.6,64.7,30.40,North,0,0.0,0.0,69,0.00,CLR,SCT,0.00,WeatherDisplay:10.37,2013-05-22 21:45:00,
2013-05-22 17:49:00,82.9,64.6,30.40,North,0,0.0,0.0,54,0.00,CLR,SCT,0.00,WeatherDisplay:10.37,2013-05-22 21:49:00,
2013-05-22 17:54:00,82.6,63.2,30.40,North,0,0.0,0.0,52,0.00,CLR,SCT,0.00,WeatherDisplay:10.37,2013-05-22 21:54:00,
2013-05-22 17:59:00,82.6,62.6,30.40,North,0,0.0,0.0,51,0.00,CLR,SCT,0.00,WeatherDisplay:10.37,2013-05-22 21:59:00,
2013-05-22 18:00:00,75.6,64.7,30.40,North,0,0.0,0.0,69,0.00,CLR,SCT,0.00,WeatherDisplay:10.37,2013-05-22 22:00:00,
2013-05-22 18:04:00,82.8,62.2,30.40,North,0,0.0,0.0,50,0.00,CLR,SCT,0.00,WeatherDisplay:10.37,2013-05-22 22:04:00,
2013-05-22 18:09:00,86.5,64.5,30.40,North,0,0.0,0.0,48,0.00,CLR,SCT,0.00,WeatherDisplay:10.37,2013-05-22 22:09:00,
2013-05-22 18:14:00,90.0,65.8,30.40,North,0,0.0,0.0,45,0.00,CLR,SCT,0.00,WeatherDisplay:10.37,2013-05-22 22:14:00,
2013-05-22 18:15:00,75.6,64.7,30.40,North,0,0.0,0.0,69,0.00,CLR,SCT,0.00,WeatherDisplay:10.37,2013-05-22 22:15:00,
2013-05-22 18:20:00,94.8,67.4,30.40,North,0,0.0,0.0,41,0.00,CLR,SCT,0.00,WeatherDisplay:10.37,2013-05-22 22:20:00,
2013-05-22 18:25:00,98.2,66.7,30.40,North,0,0.0,0.0,36,0.00,CLR,SCT,0.00,WeatherDisplay:10.37,2013-05-22 22:25:00,
2013-05-22 18:30:00,99.0,63.9,30.40,North,0,0.0,0.0,32,0.00,CLR,SCT,0.00,WeatherDisplay:10.37,2013-05-22 22:30:00,
2013-05-22 18:35:00,99.5,64.4,30.40,North,0,0.0,0.0,32,0.00,CLR,SCT,0.00,WeatherDisplay:10.37,2013-05-22 22:35:00,
2013-05-22 18:40:00,94.1,63.1,30.40,North,0,0.0,0.0,36,0.00,CLR,SCT,0.00,WeatherDisplay:10.37,2013-05-22 22:40:00,
2013-05-22 18:45:00,91.4,63.0,30.40,North,0,0.0,0.0,39,0.00,CLR,SCT,0.00,WeatherDisplay:10.37,2013-05-22 22:45:00,
2013-05-22 18:50:00,90.3,62.7,30.40,North,0,0.0,0.0,40,0.00,CLR,SCT,0.00,WeatherDisplay:10.37,2013-05-22 22:50:00,
2013-05-22 18:55:00,88.7,62.7,30.40,North,0,0.0,0.0,42,0.00,CLR,SCT,0.00,WeatherDisplay:10.37,2013-05-22 22:55:00,
2013-05-22 19:00:00,87.3,62.7,30.40,North,0,0.0,0.0,44,0.00,CLR,SCT,0.00,WeatherDisplay:10.37,2013-05-22 23:00:00,
2013-05-22 19:05:00,87.4,62.8,30.40,North,0,0.0,0.0,44,0.00,CLR,SCT,0.00,WeatherDisplay:10.37,2013-05-22 23:05:00,
2013-05-22 19:10:00,86.4,62.5,30.40,North,0,0.0,0.0,45,0.00,CLR,SCT,0.00,WeatherDisplay:10.37,2013-05-22 23:10:00,
2013-05-22 19:15:00,85.1,62.0,30.40,North,0,0.0,0.0,46,0.00,CLR,SCT,0.00,WeatherDisplay:10.37,2013-05-22 23:15:00,
2013-05-22 19:20:00,84.6,62.1,30.40,North,0,0.0,0.0,47,0.00,CLR,SCT,0.00,WeatherDisplay:10.37,2013-05-22 23:20:00,
2013-05-22 19:25:00,84.0,62.2,30.40,North,0,0.0,0.0,48,0.00,CLR,SCT,0.00,WeatherDisplay:10.37,2013-05-22 23:25:00,
2013-05-22 19:30:00,83.5,61.7,30.40,North,0,0.0,0.0,48,0.00,CLR,SCT,0.00,WeatherDisplay:10.37,2013-05-22 23:30:00,
2013-05-22 19:35:00,82.9,61.8,30.40,North,0,0.0,0.0,49,0.00,CLR,SCT,0.00,WeatherDisplay:10.37,2013-05-22 23:35:00,
2013-05-22 19:40:00,82.8,62.2,30.40,North,0,0.0,0.0,50,0.00,CLR,SCT,0.00,WeatherDisplay:10.37,2013-05-22 23:40:00,
2013-05-22 19:45:00,82.6,62.1,30.40,North,0,0.0,0.0,50,0.00,CLR,SCT,0.00,WeatherDisplay:10.37,2013-05-22 23:45:00,
2013-05-22 19:50:00,82.2,61.7,30.40,North,0,0.0,0.0,50,0.00,CLR,SCT,0.00,WeatherDisplay:10.37,2013-05-22 23:50:00,
2013-05-22 19:55:00,81.9,61.4,30.40,North,0,0.0,0.0,50,0.00,CLR,SCT,0.00,WeatherDisplay:10.37,2013-05-22 23:55:00,
2013-05-22 20:00:00,81.5,61.1,30.40,North,0,0.0,0.0,50,0.00,CLR,SCT,0.00,WeatherDisplay:10.37,2013-05-23 00:00:00,
2013-05-22 20:05:00,81.0,60.6,30.40,North,0,0.0,0.0,50,0.00,CLR,SCT,0.00,WeatherDisplay:10.37,2013-05-23 00:05:00,
2013-05-22 20:10:00,81.0,60.6,30.40,North,0,0.0,0.0,50,0.00,CLR,SCT,0.00,WeatherDisplay:10.37,2013-05-23 00:10:00,
2013-05-22 20:15:00,80.4,60.1,30.40,North,0,0.0,0.0,50,0.00,CLR,SCT,0.00,WeatherDisplay:10.37,2013-05-23 00:15:00,
2013-05-22 20:20:00,80.2,59.9,30.40,North,0,0.0,0.0,50,0.00,CLR,SCT,0.00,WeatherDisplay:10.37,2013-05-23 00:20:00,
2013-05-22 20:25:00,80.1,59.7,30.40,North,0,0.0,0.0,50,0.00,CLR,SCT,0.00,WeatherDisplay:10.37,2013-05-23 00:25:00,
2013-05-22 20:30:00,80.1,59.7,30.40,North,0,0.0,0.0,50,0.00,CLR,SCT,0.00,WeatherDisplay:10.37,2013-05-23 00:30:00,
2013-05-22 20:35:00,79.9,59.6,30.40,North,0,0.0,0.0,50,0.00,CLR,SCT,0.00,WeatherDisplay:10.37,2013-05-23 00:35:00,
2013-05-22 20:40:00,79.9,60.1,30.40,North,0,0.0,0.0,51,0.00,CLR,SCT,0.00,WeatherDisplay:10.37,2013-05-23 00:40:00,
2013-05-22 20:45:00,79.7,60.0,30.40,North,0,0.0,0.0,51,0.00,CLR,SCT,0.00,WeatherDisplay:10.37,2013-05-23 00:45:00,
2013-05-22 20:50:00,79.5,60.4,30.40,North,0,0.0,0.0,52,0.00,CLR,SCT,0.00,WeatherDisplay:10.37,2013-05-23 00:50:00,
2013-05-22 20:55:00,79.5,60.4,30.40,North,0,0.0,0.0,52,0.00,CLR,SCT,0.00,WeatherDisplay:10.37,2013-05-23 00:55:00,
2013-05-22 21:00:00,79.5,60.9,30.40,North,0,0.0,0.0,53,0.00,CLR,SCT,0.00,WeatherDisplay:10.37,2013-05-23 01:00:00,
2013-05-22 21:05:00,79.3,60.7,30.40,North,0,0.0,0.0,53,0.00,CLR,SCT,0.00,WeatherDisplay:10.37,2013-05-23 01:05:00,
2013-05-22 21:10:00,79.3,61.2,30.40,North,0,0.0,0.0,54,0.00,CLR,SCT,0.00,WeatherDisplay:10.37,2013-05-23 01:10:00,
2013-05-22 21:15:00,79.3,61.8,30.40,North,0,0.0,0.0,55,0.00,CLR,SCT,0.00,WeatherDisplay:10.37,2013-05-23 01:15:00,
2013-05-22 21:20:00,79.2,61.6,30.40,North,0,0.0,0.0,55,0.00,CLR,SCT,0.00,WeatherDisplay:10.37,2013-05-23 01:20:00,
2013-05-22 21:25:00,79.2,61.6,30.40,North,0,0.0,0.0,55,0.00,CLR,SCT,0.00,WeatherDisplay:10.37,2013-05-23 01:25:00,
2013-05-22 21:30:00,79.2,62.1,30.40,North,0,0.0,0.0,56,0.00,CLR,SCT,0.00,WeatherDisplay:10.37,2013-05-23 01:30:00,
2013-05-22 21:35:00,79.0,61.9,30.40,North,0,0.0,0.0,56,0.00,CLR,SCT,0.00,WeatherDisplay:10.37,2013-05-23 01:35:00,
2013-05-22 21:40:00,79.2,62.6,30.40,North,0,0.0,0.0,57,0.00,CLR,SCT,0.00,WeatherDisplay:10.37,2013-05-23 01:40:00,
2013-05-22 21:45:00,79.2,63.6,30.40,North,0,0.0,0.0,59,0.00,CLR,SCT,0.00,WeatherDisplay:10.37,2013-05-23 01:45:00,
2013-05-22 21:50:00,79.0,63.4,30.40,North,0,0.0,0.0,59,0.00,CLR,SCT,0.00,WeatherDisplay:10.37,2013-05-23 01:50:00,
2013-05-22 21:55:00,79.0,63.9,30.40,North,0,0.0,0.0,60,0.00,CLR,SCT,0.00,WeatherDisplay:10.37,2013-05-23 01:55:00,
2013-05-22 22:00:00,79.0,63.9,30.40,North,0,0.0,0.0,60,0.00,CLR,SCT,0.00,WeatherDisplay:10.37,2013-05-23 02:00:00,
2013-05-22 22:05:00,79.0,63.9,30.40,North,0,0.0,0.0,60,0.00,CLR,SCT,0.00,WeatherDisplay:10.37,2013-05-23 02:05:00,
2013-05-22 22:10:00,79.0,63.9,30.40,North,0,0.0,0.0,60,0.00,CLR,SCT,0.00,WeatherDisplay:10.37,2013-05-23 02:10:00,
2013-05-22 22:15:00,79.0,64.4,30.40,North,0,0.0,0.0,61,0.00,CLR,SCT,0.00,WeatherDisplay:10.37,2013-05-23 02:15:00,
2013-05-22 22:20:00,79.0,64.8,30.40,North,0,0.0,0.0,62,0.00,CLR,SCT,0.00,WeatherDisplay:10.37,2013-05-23 02:20:00,
2013-05-22 22:25:00,78.8,65.1,30.40,North,0,0.0,0.0,63,0.00,CLR,SCT,0.00,WeatherDisplay:10.37,2013-05-23 02:25:00,
2013-05-22 22:30:00,79.0,65.8,30.40,North,0,0.0,0.0,64,0.00,CLR,SCT,0.00,WeatherDisplay:10.37,2013-05-23 02:30:00,
2013-05-22 22:35:00,79.0,66.2,30.40,North,0,0.0,0.0,65,0.00,CLR,SCT,0.00,WeatherDisplay:10.37,2013-05-23 02:35:00,
2013-05-22 22:40:00,79.0,66.2,30.40,North,0,0.0,0.0,65,0.00,CLR,SCT,0.00,WeatherDisplay:10.37,2013-05-23 02:40:00,
2013-05-22 22:45:00,79.0,66.2,30.40,North,0,0.0,0.0,65,0.00,CLR,SCT,0.00,WeatherDisplay:10.37,2013-05-23 02:45:00,
2013-05-22 22:50:00,79.0,65.8,30.40,North,0,0.0,0.0,64,0.00,CLR,SCT,0.00,WeatherDisplay:10.37,2013-05-23 02:50:00,
2013-05-22 22:55:00,78.8,64.2,30.40,North,0,0.0,0.0,61,0.00,CLR,SCT,0.00,WeatherDisplay:10.37,2013-05-23 02:55:00,
2013-05-22 23:00:00,78.6,63.1,30.40,North,0,0.0,0.0,59,0.00,CLR,SCT,0.00,WeatherDisplay:10.37,2013-05-23 03:00:00,
2013-05-22 23:05:00,78.6,63.1,30.40,North,0,0.0,0.0,59,0.00,CLR,SCT,0.00,WeatherDisplay:10.37,2013-05-23 03:05:00,
2013-05-22 23:11:00,78.6,63.1,30.40,North,0,0.0,0.0,59,0.00,CLR,SCT,0.00,WeatherDisplay:10.37,2013-05-23 03:11:00,
2013-05-22 23:15:00,82.2,66.9,30.40,North,0,0.0,0.0,60,0.00,CLR,SCT,0.00,WeatherDisplay:10.37,2013-05-23 03:15:00,
2013-05-22 23:16:00,78.4,62.9,30.40,North,0,0.0,0.0,59,0.00,CLR,SCT,0.00,WeatherDisplay:10.37,2013-05-23 03:16:00,
2013-05-22 23:21:00,78.4,62.9,30.40,North,0,0.0,0.0,59,0.00,CLR,SCT,0.00,WeatherDisplay:10.37,2013-05-23 03:21:00,
2013-05-22 23:26:00,78.4,62.9,30.40,North,0,0.0,0.0,59,0.00,CLR,SCT,0.00,WeatherDisplay:10.37,2013-05-23 03:26:00,
2013-05-22 23:30:00,82.2,66.9,30.40,North,0,0.0,0.0,60,0.00,CLR,SCT,0.00,WeatherDisplay:10.37,2013-05-23 03:30:00,
2013-05-22 23:31:00,78.4,62.9,30.40,North,0,0.0,0.0,59,0.00,CLR,SCT,0.00,WeatherDisplay:10.37,2013-05-23 03:31:00,
2013-05-22 23:36:00,78.4,62.9,30.40,North,0,0.0,0.0,59,0.00,CLR,SCT,0.00,WeatherDisplay:10.37,2013-05-23 03:36:00,
2013-05-22 23:41:00,78.4,62.9,30.40,North,0,0.0,0.0,59,0.00,CLR,SCT,0.00,WeatherDisplay:10.37,2013-05-23 03:41:00,
2013-05-22 23:45:00,84.4,64.8,30.40,North,0,0.0,0.0,52,0.00,CLR,SCT,0.00,WeatherDisplay:10.37,2013-05-23 03:45:00,
2013-05-22 23:46:00,78.3,62.8,30.40,North,0,0.0,0.0,59,0.00,CLR,SCT,0.00,WeatherDisplay:10.37,2013-05-23 03:46:00,
2013-05-22 23:51:00,78.3,62.8,30.40,North,0,0.0,0.0,59,0.00,CLR,SCT,0.00,WeatherDisplay:10.37,2013-05-23 03:51:00,
2013-05-22 23:56:00,78.3,62.8,30.40,North,0,0.0,0.0,59,0.00,CLR,SCT,0.00,WeatherDisplay:10.37,2013-05-23 03:56:00,